Starlink 33853

operational
NORAD ID: 63684 Int'l Des: 2025-085 Owner: SPXS Country: US Constellation: starlink
LEOCIRCULAR

Starlink 33853について

説明を読み込み中...

リアルタイム位置

3D地球を読み込み中...

次回通過

高度履歴

Altitude vs Time

uPlot chart will show altitude changes over time

軌道要素

1 63684U 25085W 26036.19201928 .00035933 00000-0 13089-2 0 9992
2 63684 42.9923 214.1082 0000499 12.2166 347.8697 15.27580266 43908
Epoch: Feb 5, 2026 • Age: 8 hours

現在のステータス

高度 483.5 km
速度 7.63 km/s
衛星直下点 28.76°N, 24.93°E
打ち上げ日 Apr 28, 2025
運用期間 0.7 years
タイプ internet

技術仕様

分類 Payload
質量 575.00 kg
乾燥質量 530.00 kg
総質量 575.00 kg
長さ 0.30 m
直径 4.10 m
スパン 29.00 m
形状 Box + pan
製造者 SPXS
バスタイプ Starlink V2MO
フェーズステータス In Orbit
所有者/国 SPXS/US

大規模コンステレーション

Loading constellations...